Simultaneous Nadir Overpasses (SNOs) Predictions

Prediction of SNOs between GOES-16 and METOP-B Satellite Orbit:

Table of predicted SNOs for the next 14.0 days since TLE Epoch: 11/21/2020
Index Date Time (GOES-16) GOES-16 Lat,Lon METOP-B Lat,Lon Distance(km) Time Diff (sec)
1 11/22/2020 14:30:38 -0.03, -75.17 -0.09, -74.78 43.58 80
2 11/24/2020 02:49:38 0.02, -75.16 -0.93, -79.38 481.49 80
3 11/25/2020 02:26:20 0.02, -75.16 0.22, -74.39 88.34 80
4 11/26/2020 14:45:12 -0.02, -75.20 0.82, -78.95 427.89 80
5 11/27/2020 14:27:13 -0.02, -75.21 -0.28, -73.95 142.32 80
6 11/29/2020 02:46:13 0.02, -75.20 -0.74, -78.55 381.64 80
7 11/30/2020 02:22:54 0.01, -75.21 0.41, -73.56 188.71 80
8 12/01/2020 14:41:47 -0.01, -75.25 0.62, -78.12 326.90 80
9 12/02/2020 14:23:47 -0.00, -75.26 -0.47, -73.12 243.68 80
10 12/04/2020 02:42:47 -0.00, -75.26 -0.55, -77.72 279.72 80
